This demonstration page uses our WeatherBlox Daily Observations layout. Learn more.

Left ArrowRight Arrow

-33.8178, 151.00348

Hourly Observations for January 10, 2023

Temp ( °F °C ) Dew Point ( °F °C ) Humidity (%) Winds ( mph kmh ) Pressure ( in mb ) Visibility ( mi km ) Precip ( " mm )
12:00 am 00:00 Mostly Clear 68 20 61 16 78 78 SW 7 11 29.94 1014 6 10 0.00 0.00
12:30 am 00:30 Mostly Clear 68 20 63 17 83 83 SSW 7 11 29.91 1013 6 10 0.00 0.00
1:00 am 01:00 Mostly Clear 68 20 63 17 83 83 SW 8 13 29.91 1013 6 10 0.00 0.00
1:30 am 01:30 Mostly Clear 66 19 61 16 83 83 WSW 8 13 29.91 1013 6 10 0.00 0.00
2:30 am 02:30 Mostly Clear 66 19 61 16 83 83 SW 7 11 29.88 1012 6 10 0.00 0.00
3:00 am 03:00 Mostly Clear 66 19 61 16 83 83 SW 7 11 29.88 1012 6 10 0.00 0.00
3:30 am 03:30 Mostly Clear 66 19 61 16 83 83 SW 8 13 29.88 1012 6 10 0.00 0.00
4:00 am 04:00 Mostly Clear 66 19 61 16 83 83 SW 8 13 29.88 1012 6 10 0.00 0.00
4:30 am 04:30 Mostly Clear 66 19 59 15 78 78 WNW 5 7 29.88 1012 6 10 0.00 0.00
5:00 am 05:00 Mostly Clear 66 19 59 15 78 78 NNW 8 13 29.88 1012 6 10 0.00 0.00
5:30 am 05:30 Mostly Clear 64 18 59 15 83 83 NW 7 11 29.88 1012 6 10 0.00 0.00
6:00 am 06:00 Mostly Sunny 64 18 59 15 83 83 NW 7 11 29.91 1013 6 10 0.00 0.00
6:30 am 06:30 Mostly Sunny 64 18 59 15 83 83 NW 8 13 29.91 1013 6 10 0.00 0.00
7:00 am 07:00 Mostly Sunny 66 19 59 15 78 78 NW 6 9 29.91 1013 6 10 0.00 0.00
7:30 am 07:30 Mostly Sunny 68 20 59 15 73 73 WNW 6 9 29.91 1013 6 10 0.00 0.00
8:00 am 08:00 Mostly Sunny 70 21 61 16 73 73 W 5 7 29.94 1014 6 10 0.00 0.00
8:30 am 08:30 Mostly Sunny 70 21 61 16 73 73 WNW 6 9 29.94 1014 6 10 0.00 0.00
9:00 am 09:00 Mostly Sunny 72 22 61 16 69 69 WSW 6 9 29.94 1014 6 10 0.00 0.00
9:30 am 09:30 Mostly Sunny 72 22 63 17 73 73 S 8 13 29.94 1014 6 10 0.00 0.00
10:00 am 10:00 Mostly Sunny 73 23 63 17 69 69 SSE 13 20 29.94 1014 6 10 0.00 0.00
10:30 am 10:30 Partly Cloudy 73 23 63 17 69 69 S 14 22 29.94 1014 6 10 0.00 0.00
11:00 am 11:00 Partly Cloudy 73 23 63 17 69 69 S 15 24 29.94 1014 6 10 0.00 0.00
11:30 am 11:30 Mostly Sunny 73 23 63 17 69 69 SSE 15 24 29.94 1014 6 10 0.00 0.00
12:00 pm 12:00 Mostly Sunny 73 23 63 17 69 69 SSE 16 26 29.94 1014 6 10 0.00 0.00
12:30 pm 12:30 Partly Cloudy 73 23 63 17 69 69 S 16 26 29.94 1014 6 10 0.00 0.00
1:00 pm 13:00 Mostly Sunny 73 23 64 18 73 73 S 18 30 29.94 1014 6 10 0.00 0.00
1:30 pm 13:30 Mostly Sunny 75 24 63 17 65 65 SSE 16 26 29.94 1014 6 10 0.00 0.00
2:00 pm 14:00 Mostly Sunny 73 23 61 16 65 65 SSE 16 26 29.94 1014 6 10 0.00 0.00
2:30 pm 14:30 Mostly Sunny 75 24 61 16 61 61 SSE 16 26 29.94 1014 6 10 0.00 0.00
3:00 pm 15:00 Mostly Sunny 75 24 61 16 61 61 SSE 17 28 29.94 1014 6 10 0.00 0.00
3:30 pm 15:30 Partly Cloudy 75 24 61 16 61 61 SSE 16 26 29.94 1014 6 10 0.00 0.00
4:00 pm 16:00 Partly Cloudy 73 23 61 16 65 65 SSE 15 24 29.94 1014 6 10 0.00 0.00
4:30 pm 16:30 Partly Cloudy 75 24 61 16 61 61 SSE 17 28 29.91 1013 6 10 0.00 0.00
5:00 pm 17:00 Mostly Sunny 73 23 61 16 65 65 SSE 16 26 29.91 1013 6 10 0.00 0.00
5:30 pm 17:30 Mostly Sunny 73 23 59 15 61 61 SSE 16 26 29.91 1013 6 10 0.00 0.00
6:00 pm 18:00 Partly Cloudy 73 23 59 15 61 61 SSE 15 24 29.91 1013 6 10 0.00 0.00
6:30 pm 18:30 Partly Cloudy 73 23 59 15 61 61 SSE 15 24 29.91 1013 6 10 0.00 0.00
7:00 pm 19:00 Mostly Cloudy 72 22 61 16 69 69 SSE 15 24 29.94 1014 6 10 0.00 0.00
7:30 pm 19:30 Partly Cloudy 72 22 59 15 65 65 SE 13 20 29.94 1014 6 10 0.00 0.00
8:00 pm 20:00 Partly Cloudy 72 22 59 15 65 65 SSE 12 19 29.94 1014 6 10 0.00 0.00
8:30 pm 20:30 Mostly Clear 72 22 59 15 65 65 SSE 13 20 29.94 1014 6 10 0.00 0.00
9:00 pm 21:00 Partly Cloudy 72 22 59 15 65 65 SSE 10 17 29.94 1014 6 10 0.00 0.00
9:30 pm 21:30 Partly Cloudy 72 22 59 15 65 65 SSE 10 17 29.97 1015 6 10 0.00 0.00
10:00 pm 22:00 Mostly Cloudy 72 22 59 15 65 65 SSE 13 20 29.97 1015 6 10 0.00 0.00
10:30 pm 22:30 Mostly Cloudy 72 22 57 14 60 60 SSE 13 20 29.97 1015 6 10 0.00 0.00
11:00 pm 23:00 Mostly Cloudy 72 22 61 16 69 69 S 10 17 29.97 1015 6 10 0.00 0.00
11:30 pm 23:30 Mostly Cloudy 72 22 61 16 69 69 S 10 17 29.97 1015 6 10 0.00 0.00

Powered by AerisWeather